Retour au catalogue

KUIPER-00198

ActifCommunicationsLEO
NORAD 67770·PAYLOAD·🇺🇸 United States

Lancé Feb 12, 2026 depuis Guiana Space Centre

Loading…

Prochains Passages (prochaines 24 heures)

TLE

FraisSource: CelesTrak SupGP

Époque: Sep 15, 2026, 03:25 UTC

1 67770C 26030G   26258.14270833  .00002115  00000+0  27690-3 0  2582
2 67770  51.8968  82.8302 0000874 113.8952   5.6534 14.79927288    18

Suivez KUIPER-00198 en temps réel avec AllMySat

Download on the App Store